Weather History for Ashland, WI

Change the Weather History Date:

Wednesday, February 13, 2013

  Actual Average Record
Temperature  
Mean Temperature 30 °F -  
Max Temperature 39 °F 27 °F 49 °F (1976)
Min Temperature 21 °F 2 °F -25 °F (1971)
Degree Days  
Heating Degree Days 35    
Moisture  
Dew Point 23 °F    
Average Humidity 76    
Maximum Humidity 93    
Minimum Humidity 53    
Precipitation  
Precipitation 0.00 in - - ()
Sea Level Pressure  
Sea Level Pressure 29.68 in    
Wind  
Wind Speed 8 mph (WSW)    
Max Wind Speed 13 mph    
Max Gust Speed -    
Visibility 9 miles    
Events Snow    
Averages and records for this station are not official NWS values.
T = Trace of Precipitation, MM = Missing Value Source: NWS Daily Summary

Daily Weather History Graph

Daily Weather History Graph

Search for Another Location

Airport:

Trip Planner

Search our weather history database for the weather conditions in past years. The results will help you decide how hot, cold, wet, or windy it might be!

Date:

Astronomy

Feb. 13, 2013 Rise Set
Actual Time 7:10 AM CST 5:26 PM CST
Civil Twilight 6:38 AM CST 5:57 PM CST
Nautical Twilight 6:03 AM CST 6:33 PM CST
Astronomical Twilight 5:28 AM CST 7:08 PM CST
Moon 8:22 AM CST (2/13) 9:48 PM CST (2/13)
Length of Visible Light 11h 18m
Length of Day
10h 16m
Waxing Crescent, 14% of the Moon is Illuminated
Feb 13
Waxing Crescent
Feb 17
First Quarter
Feb 25
Full
Mar 4
Last Quarter
Mar 11
New

Hourly Weather History & Observations

Time (CST) Temp. Windchill Dew Point Humidity Pressure Visibility Wind Dir Wind Speed Gust Speed Precip Events Conditions
12:53 AM 27.0 °F 16.1 °F 19.0 °F 72% 29.74 in 10.0 mi WSW 12.7 mph - N/A   Overcast
1:53 AM 27.0 °F 18.0 °F 19.0 °F 72% 29.73 in 10.0 mi WSW 9.2 mph - N/A   Overcast
2:53 AM 26.1 °F 17.6 °F 19.0 °F 75% 29.73 in 10.0 mi SW 8.1 mph - N/A   Overcast
3:53 AM 25.0 °F 15.5 °F 19.0 °F 78% 29.72 in 10.0 mi SW 9.2 mph - N/A   Overcast
4:53 AM 25.0 °F 16.3 °F 18.0 °F 75% 29.72 in 10.0 mi WSW 8.1 mph - N/A   Overcast
6:53 AM 21.9 °F 13.4 °F 17.1 °F 82% 29.70 in 10.0 mi SW 6.9 mph - N/A   Overcast
7:53 AM 23.0 °F 13.9 °F 17.1 °F 78% 29.71 in 10.0 mi SW 8.1 mph - N/A   Scattered Clouds
8:53 AM 25.0 °F 14.8 °F 18.0 °F 75% 29.70 in 10.0 mi SW 10.4 mph - N/A   Clear
9:53 AM 28.0 °F 20.0 °F 19.9 °F 72% 29.68 in 10.0 mi SW 8.1 mph - N/A   Clear
10:53 AM 30.9 °F 22.8 °F 21.0 °F 67% 29.67 in 10.0 mi WSW 9.2 mph - N/A   Clear
11:53 AM 34.0 °F 27.2 °F 21.9 °F 61% 29.66 in 10.0 mi WSW 8.1 mph - N/A   Clear
12:53 PM 37.0 °F 31.6 °F 23.0 °F 57% 29.65 in 10.0 mi WSW 6.9 mph - N/A   Clear
1:53 PM 39.9 °F 34.5 °F 24.1 °F 53% 29.63 in 10.0 mi WSW 8.1 mph - N/A   Clear
2:53 PM 39.9 °F 33.9 °F 26.1 °F 58% 29.63 in 10.0 mi WNW 9.2 mph - N/A   Clear
3:53 PM 39.0 °F 36.8 °F 25.0 °F 57% 29.64 in 10.0 mi West 3.5 mph - N/A   Scattered Clouds
4:53 PM 35.1 °F 29.3 °F 26.1 °F 70% 29.65 in 10.0 mi ENE 6.9 mph - N/A   Overcast
5:53 PM 33.1 °F 26.9 °F 25.0 °F 72% 29.66 in 10.0 mi NNE 6.9 mph - N/A   Overcast
6:53 PM 30.0 °F 21.7 °F 25.0 °F 82% 29.69 in 10.0 mi ENE 9.2 mph - N/A   Overcast
7:34 PM 28.4 °F 21.2 °F 24.8 °F 86% 29.66 in 2.5 mi ENE 6.9 mph - 0.00 in Snow Light Snow
7:53 PM 28.9 °F 22.8 °F 25.0 °F 85% 29.70 in 2.5 mi ENE 5.8 mph - 0.00 in Snow Light Snow
8:16 PM 28.4 °F 23.3 °F 24.8 °F 86% 29.66 in 4.0 mi ENE 4.6 mph - 0.00 in Snow Light Snow
8:25 PM 28.4 °F 23.3 °F 24.8 °F 86% 29.66 in 7.0 mi ENE 4.6 mph - 0.00 in   Overcast
8:53 PM 28.0 °F 22.8 °F 26.1 °F 92% 29.70 in 10.0 mi NE 4.6 mph - 0.00 in   Overcast
9:04 PM 28.4 °F 23.3 °F 26.6 °F 93% 29.66 in 10.0 mi ENE 4.6 mph - N/A   Overcast
9:53 PM 28.0 °F 22.8 °F 25.0 °F 88% 29.70 in 10.0 mi ENE 4.6 mph - N/A   Overcast
10:53 PM 28.0 °F - 25.0 °F 88% 29.69 in 10.0 mi Calm Calm - 0.00 in   Overcast
11:53 PM 27.0 °F - 23.0 °F 85% 29.70 in 10.0 mi Calm Calm - N/A   Overcast